Flag for Liberia Weather past 2 weeks in Monrovia, Liberia

Now
82 °F

Thunderstorms. Passing clouds.


Feels Like: 92 °F
Forecast: N/A
Wind: No wind

Location: Roberts Field

Current Time: Apr 21, 2015 at 10:13:57 PM

Latest Report: Apr 21, 2015 at 9:00 PM


Visibility: N/A

Pressure: 29.86 "Hg

Humidity: 89%

Dew point: 79 °F

Location of MonroviaLocation

Historic Weather in Monrovia — Graph

°F

Monrovia temperature yesterday

Maximum temperature yesterday: 90 °F (at 12:00 PM)
Minimum temperature yesterday: 77 °F (at 5:00 AM)
Average temperature yesterday: 84 °F

Past Weeks' High & Low Weather Summary

 TemperatureHumidityPressure
High93 °F (Apr 9, 1:30 PM)100% (Apr 11, 3:30 AM)30.01 "Hg (Apr 11, 3:30 AM)
Low73 °F (Apr 8, 5:30 AM)55% (Apr 17, 5:00 PM)29.77 "Hg (Apr 7, 4:00 PM)
Average82 °F85%29.87 "Hg
* Reported Apr 7 1:00 AM — Apr 21 9:00 PM, Monrovia, Weather by CustomWeather, © 2015

Note: Actual official high and low records may vary slightly from our data, if they occured in-between our weather recording intervals... More about our weather records

Advertising

Monrovia weather history for previous 24 hours

 ConditionsComfort  
Time TempWeatherWind HumidityBarometerVisibility
9:00 PM
Tue, Apr 21
82 °FThunderstorms. Passing clouds.No wind89%29.86 "HgN/A
8:30 PM82 °FThunderstorms. Passing clouds.No wind89%29.86 "HgN/A
8:00 PM82 °FThunderstorms. Passing clouds.6 mph89%29.83 "HgN/A
7:30 PM84 °FThunderstorms. Scattered clouds.5 mph84%29.83 "HgN/A
7:00 PM84 °FThunderstorms. Scattered clouds.7 mph84%29.83 "HgN/A
6:30 PM86 °FThunderstorms. Scattered clouds.7 mph75%29.80 "HgN/A
6:00 PM86 °FThunderstorms. Scattered clouds.12 mph75%29.80 "HgN/A
5:30 PM86 °FThunderstorms. Partly sunny.8 mph75%29.80 "HgN/A
5:00 PM88 °FThunderstorms. Scattered clouds.12 mph75%29.80 "HgN/A
4:30 PM86 °FScattered clouds.10 mph75%29.77 "HgN/A
4:00 PM88 °FScattered clouds.12 mph70%29.80 "HgN/A
3:30 PM88 °FScattered clouds.10 mph75%29.80 "HgN/A
3:00 PM90 °FSprinkles. Scattered clouds.14 mph67%29.80 "Hg6 mi
2:30 PM91 °FScattered clouds.9 mph67%29.80 "HgN/A
2:00 PM91 °FScattered clouds.7 mph63%29.83 "HgN/A
1:30 PM93 °FPartly sunny.14 mph63%29.83 "HgN/A
1:00 PM91 °FPartly sunny.3 mph63%29.86 "HgN/A
12:30 PM91 °FPartly sunny.6 mph67%29.86 "HgN/A
12:00 PM90 °FPartly sunny.5 mph67%29.86 "HgN/A
11:30 AM88 °FPartly sunny.No wind70%29.89 "HgN/A
11:00 AM88 °FPartly sunny.No wind75%29.89 "HgN/A
10:30 AM88 °FPartly sunny.8 mph75%29.89 "HgN/A
10:00 AM86 °FScattered clouds.No wind79%29.89 "HgN/A
9:30 AM84 °FSunny.No wind79%29.89 "Hg10 mi
9:00 AM82 °FPassing clouds.No wind79%29.89 "HgN/A
8:30 AM79 °FScattered clouds.No wind89%29.89 "HgN/A
8:00 AM79 °FScattered clouds.No wind89%29.86 "HgN/A
7:30 AM77 °FPassing clouds.No wind89%29.86 "HgN/A
7:00 AM75 °FPassing clouds.No wind94%29.86 "HgN/A
6:30 AM75 °FPassing clouds.No wind94%29.83 "HgN/A
6:00 AM75 °FPassing clouds.No wind94%29.83 "HgN/A
5:30 AM75 °FPassing clouds.No wind94%29.83 "HgN/A
5:00 AM75 °FPassing clouds.No wind94%29.83 "HgN/A
4:30 AM75 °FPassing clouds.No wind94%29.83 "HgN/A
4:00 AM75 °FPassing clouds.No wind94%29.83 "HgN/A
3:30 AM75 °FPassing clouds.No wind94%29.80 "HgN/A
3:00 AM77 °FPassing clouds.No wind94%29.83 "HgN/A
2:30 AM77 °FPassing clouds.No wind94%29.83 "HgN/A
2:00 AM77 °FPassing clouds.No wind94%29.83 "HgN/A
1:30 AM77 °FPassing clouds.No wind94%29.83 "HgN/A
1:00 AM77 °FPassing clouds.No wind94%29.86 "HgN/A
12:30 AM77 °FPassing clouds.No wind94%29.86 "HgN/A
12:00 AM79 °FWarm.No wind94%29.86 "HgN/A
11:30 PM
Mon, Apr 20
79 °FPassing clouds.5 mph94%29.86 "HgN/A
11:00 PM79 °FPassing clouds.3 mph94%29.86 "HgN/A
10:30 PM81 °FPassing clouds.No wind89%29.86 "HgN/A
10:00 PM82 °FPassing clouds.No wind89%29.86 "HgN/A
Weather by CustomWeather, © 2015

See weather overviewHow to use our weather pages